+ View the NASA Portal
+ Center for Near-Earth Object Studies
IMPORTANT:
The SSD Announcement email list is now available. Major changes are coming in the near future, including possible hostname and/or URL changes. To be notified of such changes, subscribe to this email list.
Please visit
this page
for more details.
Don't show this message again
JPL Small-Body Database Browser
Search:
[
help
]
27193 (1999 CD60)
Classification:
Main-belt Asteroid
SPK-ID:
2027193
[
Ephemeris
|
Orbit Diagram
|
Orbital Elements
|
Mission Design
|
Physical Parameters
|
Discovery Circumstances
|
Close-Approach Data
]
[ show orbit diagram ]
Orbital Elements at Epoch 2458600.5 (2019-Apr-27.0) TDB
Reference:
JPL 23
(heliocentric ecliptic J2000)
Element
Value
Uncertainty (1-sigma)
Units
e
.1449981467990929
5.3477e-08
a
2.571421445414773
1.3837e-08
au
q
2.198570101190187
1.3478e-07
au
i
14.16672087670083
4.4801e-06
deg
node
163.8957357926272
2.0309e-05
deg
peri
222.9456789168942
2.4237e-05
deg
M
52.11830587756405
1.3277e-05
deg
t
p
2458382.455011783181
(2018-Sep-20.95501178)
5.547e-05
TDB
period
1506.115642792719
4.12
1.2156e-05
3.328e-08
d
yr
n
.2390254704031021
1.9293e-09
deg/d
Q
2.94427278963936
1.5843e-08
au
Orbit Determination Parameters
# obs. used (total)
1166
data-arc span
11685 days (31.99 yr)
first obs. used
1987-04-01
last obs. used
2019-03-29
planetary ephem.
DE431
SB-pert. ephem.
SB431-N16
condition code
0
norm. resid. RMS
.53718
source
ORB
producer
Otto Matic
solution date
2019-Jul-13 01:02:09
Additional Information
Earth MOID
= 1.21944 au
Jupiter MOID
= 2.55879 au
T_jup
= 3.372
[ show covariance matrix ]
[
Ephemeris
|
Orbit Diagram
|
Orbital Elements
|
Mission Design
|
Physical Parameters
|
Discovery Circumstances
|
Close-Approach Data
]
Physical Parameter Table
Parameter
Symbol
Value
Units
Sigma
Reference
Notes
absolute magnitude
H
14.3
n/a
MPO365574
27193 (1999 CD60)
Discovered 1999-Feb-12 by LINEAR at Socorro
Reference:
20010804/Numbers.arc
Last Updated:
2004-04-19
[ show close-approach data ]
Alternate Designations
1999 CD60
= 1987 GP
[
Ephemeris
|
Orbit Diagram
|
Orbital Elements
|
Mission Design
|
Physical Parameters
|
Discovery Circumstances
|
Close-Approach Data
]
2019-Dec-06 03:56 UT
(server date/time)
Site Manager:
Ryan S. Park
Webmaster
:
Alan B. Chamberlin